Weather History for Wisconsin Rapids, WI

Change the Weather History Date:

Wednesday, August 21, 2013

  Actual Average Record
Temperature  
Mean Temperature 78 °F -  
Max Temperature 91 °F 79 °F 103 °F (1955)
Min Temperature 64 °F 54 °F 35 °F (2004)
Cooling Degree Days 14    
Growing Degree Days 28 (Base 50)    
Moisture  
Dew Point 66 °F    
Average Humidity 73    
Maximum Humidity 100    
Minimum Humidity 47    
Precipitation  
Precipitation 0.18 in - - ()
Sea Level Pressure  
Sea Level Pressure 29.97 in    
Wind  
Wind Speed 8 mph (SSW)    
Max Wind Speed 16 mph    
Max Gust Speed 37 mph    
Visibility 8 miles    
Events Fog , Rain , Thunderstorm    
Averages and records for this station are not official NWS values.
T = Trace of Precipitation, MM = Missing Value Source: NWS Daily Summary

Daily Weather History Graph

Daily Weather History Graph

Search for Another Location

Airport:

Trip Planner

Search our weather history database for the weather conditions in past years. The results will help you decide how hot, cold, wet, or windy it might be!

Date:

Astronomy

Aug. 21, 2013 Rise Set
Actual Time 6:09 AM CDT 7:54 PM CDT
Civil Twilight 5:38 AM CDT 8:25 PM CDT
Nautical Twilight 5:01 AM CDT 9:02 PM CDT
Astronomical Twilight 4:20 AM CDT 9:42 PM CDT
Moon 7:57 PM CDT (8/21) 6:53 AM CDT (8/21)
Length of Visible Light 14h 46m
Length of Day
13h 44m
Waxing Gibbous, 99% of the Moon is Illuminated
Aug 21
Waxing Gibbous
Aug 28
Last Quarter
Sep 5
New
Sep 12
First Quarter
Sep 19
Full

Hourly Weather History & Observations

Time (CDT) Temp. Heat Index Dew Point Humidity Pressure Visibility Wind Dir Wind Speed Gust Speed Precip Events Conditions
12:54 AM 75.9 °F - 64.0 °F 67% 29.97 in 10.0 mi South 8.1 mph - N/A   Overcast
1:54 AM 75.0 °F - 64.0 °F 69% 29.96 in 10.0 mi South 9.2 mph - N/A   Overcast
2:54 AM 73.0 °F - 64.0 °F 73% 29.96 in 10.0 mi South 6.9 mph - N/A   Scattered Clouds
3:54 AM 72.0 °F - 64.0 °F 76% 29.96 in 10.0 mi South 6.9 mph - N/A   Clear
4:54 AM 71.1 °F - 64.0 °F 78% 29.96 in 10.0 mi SSW 6.9 mph - N/A   Clear
5:54 AM 71.1 °F - 64.0 °F 78% 29.95 in 10.0 mi SSW 5.8 mph - N/A   Partly Cloudy
6:54 AM 72.0 °F - 64.0 °F 76% 29.96 in 10.0 mi South 6.9 mph - N/A   Clear
7:54 AM 75.0 °F - 64.9 °F 71% 29.97 in 10.0 mi South 11.5 mph 18.4 mph N/A   Clear
8:54 AM 78.1 °F - 66.0 °F 66% 29.97 in 10.0 mi SSW 9.2 mph - N/A   Partly Cloudy
9:54 AM 81.0 °F 83.0 °F 66.0 °F 60% 29.96 in 10.0 mi South 10.4 mph - N/A   Clear
10:54 AM 84.0 °F 86.5 °F 66.9 °F 56% 29.96 in 10.0 mi SSW 8.1 mph - N/A   Clear
11:54 AM 87.1 °F 89.9 °F 66.9 °F 51% 29.94 in 10.0 mi SSW 12.7 mph 17.3 mph N/A   Clear
12:54 PM 88.0 °F 91.4 °F 68.0 °F 51% 29.92 in 10.0 mi South 11.5 mph 19.6 mph N/A   Clear
1:54 PM 91.0 °F 95.2 °F 68.0 °F 47% 29.90 in 10.0 mi SSW 12.7 mph - N/A   Clear
2:54 PM 90.0 °F 94.5 °F 69.1 °F 50% 29.89 in 10.0 mi SSW 13.8 mph 23.0 mph N/A   Clear
3:54 PM 91.0 °F 95.6 °F 69.1 °F 48% 29.90 in 10.0 mi WSW 13.8 mph 29.9 mph N/A   Partly Cloudy
4:54 PM 87.1 °F 92.0 °F 70.0 °F 57% 29.90 in 10.0 mi WSW 11.5 mph 17.3 mph N/A   Overcast
5:54 PM 84.9 °F 89.4 °F 70.0 °F 61% 29.90 in 10.0 mi WSW 12.7 mph 18.4 mph N/A   Overcast
6:54 PM 82.9 °F 87.0 °F 70.0 °F 65% 29.95 in 10.0 mi West 8.1 mph 17.3 mph N/A   Mostly Cloudy
7:14 PM 82.4 °F 87.2 °F 71.6 °F 70% 29.98 in 10.0 mi West 8.1 mph - 0.00 in Rain , Thunderstorm Light Thunderstorms and Rain
7:32 PM 73.4 °F - 64.4 °F 73% 30.01 in 2.5 mi WNW 10.4 mph 36.8 mph 0.08 in Rain , Thunderstorm Thunderstorms and Rain
7:39 PM 73.4 °F - 66.2 °F 78% 30.02 in 10.0 mi NNE 16.1 mph 24.2 mph 0.09 in Rain , Thunderstorm Light Thunderstorms and Rain
7:54 PM 69.1 °F - 66.0 °F 90% 30.00 in 8.0 mi ENE 6.9 mph 20.7 mph 0.11 in Rain , Thunderstorm Light Thunderstorms and Rain
8:04 PM 69.8 °F - 66.2 °F 88% 30.00 in 6.0 mi NE 5.8 mph - 0.03 in Rain Rain
8:54 PM 68.0 °F - 66.0 °F 93% 29.99 in 10.0 mi SW 3.5 mph - 0.06 in   Partly Cloudy
9:54 PM 66.9 °F - 66.0 °F 97% 30.01 in 9.0 mi WSW 3.5 mph - 0.00 in   Clear
10:40 PM 66.2 °F - 66.2 °F 100% 30.04 in 1.8 mi Calm Calm - 0.00 in   Clear
10:54 PM 66.0 °F - 64.9 °F 96% 30.02 in 1.0 mi Calm Calm - 0.00 in   Clear
11:03 PM 66.2 °F - 64.4 °F 94% 30.04 in 1.8 mi Calm Calm - N/A   Clear
11:06 PM 66.2 °F - 64.4 °F 94% 30.03 in 0.8 mi Calm Calm - N/A   Mist
11:54 PM 64.9 °F - 64.9 °F 100% 30.02 in 0.2 mi Calm Calm - 0.01 in Fog Fog